SHIYAN-29

Last updated on Sun Apr 12 2026 00:02:57 GMT+0000 (Coordinated Universal Time)

1 65486U 25196A 26100.98459902 -.00000267 00000+0 00000+0 0 9991 2 65486 28.7509 19.3834 0010022 175.8067 94.0585 1.00277246 2203
UTC large
Height (km)
Speed (km/s)
/
Latitude / Longitude
Inclination (degrees)
Orbital Period (minutes)
Azimuth
Elevation
Range (km)
Doppler Factor

Next 0 passes for location: London (51.5072 / 0.1276)

Sorry there are no passes over London.
SHIYAN-29